Regional Weather Roundup
Issued by NWS

Home | Current Version | Previous Version | Text Only | Print | Product List | Glossary Off
Versions: 1 2 3 4 5 6 7 8 9 10 11 12 13 14 15 16 17 18 19 20 21 22 23 24 25 26 27 28 29 30 31 32 33 34 35 36 37 38 39 40 41 42 43 44 45 46 47 48 49 50

746
ASUS45 KSLC 291310
RWRUT

UTAH REGIONAL WEATHER ROUNDUP
NATIONAL WEATHER SERVICE SALT LAKE CITY UT
700 AM MDT WED MAR 29 2017

UTZ001>011-023>025-291400-

NORTHERN UTAH

CITY           SKY/WX    TMP DP  RH WIND       PRES   REMARKS
BRIGHAM CITY     N/A     34  29  82 NW3       30.25R
HILL AFB       CLEAR     35  25  67 E13       30.23R WCI  26
LOGAN          CLEAR     31  26  82 CALM      30.24S
OGDEN          CLEAR     32  27  81 S8        30.23R WCI  25
SALT LAKE CITY CLEAR     37  30  75 SE5       30.23S WCI  33
TOOELE VALLEY  PTCLDY    30  28  93 SE7       30.24F WCI  23
WENDOVER       CLEAR     37  26  64 CALM      30.25S
HEBER CITY     PTCLDY    25  19  80 CALM      30.22S
WEST JORDAN    CLEAR     37  35  90 SW5       30.24S WCI  34

$$

UTZ011>015-024>027-291400-

CENTRAL/NORTHEAST UTAH

CITY           SKY/WX    TMP DP  RH WIND       PRES   REMARKS
PROVO AIRPORT  PTCLDY    31  28  89 SE3       30.26R
MOAB/CANYONLAN CLEAR     46  29  51 NE13      30.12S
DELTA          CLEAR     30  27  86 CALM      30.24S
PRICE          CLEAR     35  23  61 E6        30.15R WCI  30
RICHFIELD      CLEAR     25  25 100 CALM      30.27
ROOSEVELT      PTCLDY    32  28  86 N5        30.20R WCI  27
VERNAL         CLOUDY    28  23  81 W5        30.19R WCI  23

$$

UTZ013>016-019>022-027-291400-

SOUTHERN UTAH

CITY           SKY/WX    TMP DP  RH WIND       PRES   REMARKS
BRYCE CANYON   CLEAR     26  18  71 NW6       30.20R WCI  19
CEDAR CITY     CLEAR     26  23  88 N7        30.19S WCI  18
MILFORD        CLEAR     28  24  85 CALM      30.23R
ST GEORGE      MOSUNNY   41  25  53 SE7       30.13S
HANKSVILLE     CLEAR     32  23  69 CALM      30.17R
KANAB          CLEAR     32  25  74 NE7       30.19  WCI  26
BLANDING       CLEAR     40  26  58 N9G21     30.12R WCI  34

$$

REGIONAL REPORTS     COLORADO/ARIZONA

CITY           SKY/WX    TMP DP  RH WIND       PRES   REMARKS
CRAIG, CO      PTCLDY    30  25  81 SW9       30.18R WCI  22
GRAND JUNCTION CLEAR     40  31  70 NW13      30.12R WCI  32
RIFLE, CO      CLOUDY    35  31  85 VRB6      30.14R WCI  30
MONTROSE, CO   CLEAR     31  29  92 SE7       30.13R WCI  24
CORTEZ, CO     CLEAR     40  29  64 VRB5      30.02R
COLORADO CITY    N/A     28  23  80 E5        30.17R WCI  23
PAGE, AZ       CLEAR     45  23  42 CALM      30.11R
GRAND CANYON   CLEAR     25  21  85 NE3       30.15R
KINGMAN, AZ    CLEAR     37  15  40 E9        30.10R WCI  30
FLAGSTAFF, AZ  CLEAR     37  19  48 VRB3      30.08S

$$

REGIONAL REPORTS    NEVADA/IDAHO/WYOMING

CITY           SKY/WX    TMP DP  RH WIND       PRES   REMARKS
LAS VEGAS, NV  PTCLDY    53  26  35 SW5       30.11R
ELY, NY        CLEAR     23  21  92 S8        30.25S WCI  14
ELKO, NV       CLEAR     28  24  85 CALM      30.27R
POCATELLO, ID  CLOUDY    36  29  75 S9        30.22F WCI  29
BURLEY, ID     CLEAR     34  26  72 SW10      30.21S WCI  26
FORT BRIDGER,    N/A     28  25  86 W13       30.24S WCI  18
EVANSTON, WY   CLOUDY    24  20  84 S6        30.21S WCI  17
ROCK SPRINGS,  CLOUDY    28  21  75 SW14      30.18S WCI  17

$$




USA.gov is the U.S. government's official web portal to all federal, state and local government web resources and services.